WIF9AY ENBR-ENZV

Flight info

Callsign WIF9AY
Flight time 0h 24m
Altitude 17000
Route BEGOD
Aircraft DH8D/M-SDE2E3FGRY/H

Departure

Time 2026-04-20 06:02
Airport Bergen Airport, Flesland (ENBR)

Arrival

Time 2026-04-20 06:26
Airport Stavanger Airport, Sola (ENZV)
Time Latitude Longitude Altitude Speed Heading
2026-04-20 05:54 60.28699 5.22913 175 ft 0 kts 80°
2026-04-20 05:54 60.28699 5.22914 175 ft 0 kts 80°
2026-04-20 05:55 60.28699 5.22905 175 ft 2 kts 82°
2026-04-20 05:55 60.28697 5.22877 175 ft 2 kts 80°
2026-04-20 05:55 60.28694 5.22847 175 ft 2 kts 80°
2026-04-20 05:55 60.28692 5.22816 175 ft 2 kts 80°
2026-04-20 05:56 60.28690 5.22788 175 ft 2 kts 80°
2026-04-20 05:56 60.28687 5.22758 175 ft 2 kts 80°
2026-04-20 05:56 60.28686 5.22750 175 ft 0 kts 80°
2026-04-20 05:58 60.28686 5.22752 175 ft 1 kts 79°
2026-04-20 05:58 60.28720 5.22750 175 ft 10 kts 307°
2026-04-20 05:58 60.28724 5.22591 175 ft 11 kts 261°
2026-04-20 05:59 60.28704 5.22465 175 ft 9 kts 238°
2026-04-20 05:59 60.28657 5.22371 175 ft 9 kts 185°
2026-04-20 05:59 60.28586 5.22387 175 ft 10 kts 171°
2026-04-20 05:59 60.28509 5.22414 175 ft 11 kts 170°
2026-04-20 06:00 60.28429 5.22441 175 ft 12 kts 170°
2026-04-20 06:00 60.28346 5.22469 175 ft 12 kts 171°
2026-04-20 06:00 60.28260 5.22496 175 ft 12 kts 171°
2026-04-20 06:00 60.28174 5.22525 175 ft 12 kts 169°
2026-04-20 06:01 60.28087 5.22532 175 ft 12 kts 201°
2026-04-20 06:01 60.28052 5.22380 175 ft 12 kts 260°
2026-04-20 06:01 60.28082 5.22239 175 ft 12 kts 346°
2026-04-20 06:01 60.28338 5.22155 175 ft 82 kts 350°
2026-04-20 06:02 60.29153 5.21885 241 ft 144 kts 350°
2026-04-20 06:02 60.30167 5.21464 787 ft 158 kts 348°
2026-04-20 06:02 60.31302 5.21058 1370 ft 172 kts 351°
2026-04-20 06:02 60.32492 5.20688 2062 ft 179 kts 351°
2026-04-20 06:03 60.33661 5.19934 2794 ft 184 kts 326°
2026-04-20 06:03 60.34385 5.17802 3471 ft 193 kts 285°
2026-04-20 06:03 60.34278 5.15146 4124 ft 198 kts 245°
2026-04-20 06:03 60.33376 5.13173 4845 ft 195 kts 204°
2026-04-20 06:04 60.32094 5.12574 5646 ft 190 kts 184°
2026-04-20 06:04 60.30791 5.12224 6381 ft 193 kts 185°
2026-04-20 06:04 60.29473 5.11777 7119 ft 195 kts 181°
2026-04-20 06:04 60.28170 5.12152 7845 ft 193 kts 162°
2026-04-20 06:05 60.26889 5.12864 8556 ft 196 kts 162°
2026-04-20 06:05 60.25562 5.13549 9295 ft 198 kts 163°
2026-04-20 06:05 60.24246 5.14198 10025 ft 200 kts 163°
2026-04-20 06:05 60.22901 5.14834 10730 ft 204 kts 164°
2026-04-20 06:06 60.21440 5.15505 11041 ft 226 kts 165°
2026-04-20 06:06 60.19880 5.16196 11663 ft 232 kts 165°
2026-04-20 06:06 60.18317 5.16873 12376 ft 234 kts 165°
2026-04-20 06:06 60.16725 5.17554 13062 ft 236 kts 166°
2026-04-20 06:07 60.15140 5.18225 13710 ft 239 kts 166°
2026-04-20 06:07 60.13511 5.18911 14391 ft 242 kts 166°
2026-04-20 06:07 60.11866 5.19599 15063 ft 244 kts 166°
2026-04-20 06:07 60.10203 5.20292 15725 ft 247 kts 166°
2026-04-20 06:08 60.08517 5.20992 16351 ft 249 kts 166°
2026-04-20 06:08 60.06820 5.21695 16957 ft 252 kts 166°
2026-04-20 06:08 60.05068 5.22421 17261 ft 267 kts 166°
2026-04-20 06:08 60.03201 5.23191 17357 ft 288 kts 166°
2026-04-20 06:09 60.01160 5.24029 17378 ft 304 kts 166°
2026-04-20 06:09 59.99065 5.24887 17384 ft 316 kts 167°
2026-04-20 06:09 59.96892 5.25777 17381 ft 326 kts 167°
2026-04-20 06:09 59.94622 5.26705 17379 ft 334 kts 167°
2026-04-20 06:10 59.92348 5.27632 17376 ft 339 kts 167°
2026-04-20 06:10 59.90023 5.28579 17370 ft 340 kts 166°
2026-04-20 06:10 59.87729 5.29513 17370 ft 338 kts 167°
2026-04-20 06:10 59.85422 5.30452 17370 ft 337 kts 167°
2026-04-20 06:11 59.83155 5.31372 17371 ft 336 kts 167°
2026-04-20 06:11 59.80860 5.32304 17371 ft 336 kts 167°
2026-04-20 06:11 59.78587 5.33224 17370 ft 335 kts 167°
2026-04-20 06:11 59.76288 5.34155 17372 ft 336 kts 167°
2026-04-20 06:12 59.73996 5.35079 17370 ft 335 kts 167°
2026-04-20 06:12 59.71710 5.36002 17371 ft 335 kts 167°
2026-04-20 06:12 59.69438 5.36916 17309 ft 338 kts 167°
2026-04-20 06:12 59.67111 5.37852 16950 ft 348 kts 167°
2026-04-20 06:13 59.64747 5.38797 16451 ft 340 kts 167°
2026-04-20 06:13 59.62503 5.39696 15978 ft 322 kts 166°
2026-04-20 06:13 59.60369 5.40554 15518 ft 307 kts 166°
2026-04-20 06:13 59.58324 5.41376 15073 ft 293 kts 166°
2026-04-20 06:14 59.56384 5.42155 14653 ft 280 kts 166°
2026-04-20 06:14 59.54534 5.42896 14254 ft 269 kts 166°
2026-04-20 06:14 59.52694 5.43636 13861 ft 267 kts 166°
2026-04-20 06:14 59.50883 5.44362 13471 ft 267 kts 166°
2026-04-20 06:15 59.49079 5.45083 13077 ft 266 kts 166°
2026-04-20 06:15 59.47265 5.45806 12681 ft 266 kts 166°
2026-04-20 06:15 59.45468 5.46520 12286 ft 265 kts 166°
2026-04-20 06:15 59.43672 5.47234 11892 ft 264 kts 166°
2026-04-20 06:16 59.41890 5.47939 11501 ft 263 kts 166°
2026-04-20 06:16 59.40086 5.48653 11105 ft 262 kts 166°
2026-04-20 06:16 59.38318 5.49352 10716 ft 261 kts 166°
2026-04-20 06:16 59.36556 5.50048 10329 ft 259 kts 166°
2026-04-20 06:17 59.34788 5.50746 9944 ft 258 kts 166°
2026-04-20 06:17 59.33054 5.51429 9569 ft 256 kts 166°
2026-04-20 06:17 59.31298 5.52119 9091 ft 255 kts 166°
2026-04-20 06:17 59.29578 5.52795 8597 ft 255 kts 165°
2026-04-20 06:18 59.27857 5.53471 8114 ft 253 kts 165°
2026-04-20 06:18 59.26135 5.54146 7698 ft 250 kts 166°
2026-04-20 06:18 59.24464 5.54800 7317 ft 245 kts 166°
2026-04-20 06:18 59.22813 5.55445 6951 ft 240 kts 165°
2026-04-20 06:19 59.21182 5.56084 6593 ft 236 kts 166°
2026-04-20 06:19 59.19595 5.56703 6247 ft 232 kts 165°
2026-04-20 06:19 59.18036 5.57313 5903 ft 229 kts 165°
2026-04-20 06:19 59.16480 5.57913 5530 ft 227 kts 165°
2026-04-20 06:20 59.14932 5.58478 5186 ft 224 kts 166°
2026-04-20 06:20 59.13421 5.59006 4837 ft 222 kts 166°
2026-04-20 06:20 59.11919 5.59529 4485 ft 220 kts 166°
2026-04-20 06:20 59.10408 5.60049 4128 ft 218 kts 166°
2026-04-20 06:21 59.08957 5.60531 3791 ft 208 kts 166°
2026-04-20 06:21 59.07571 5.60977 3511 ft 197 kts 166°
2026-04-20 06:21 59.06262 5.61376 3245 ft 186 kts 166°
2026-04-20 06:21 59.05033 5.61733 3018 ft 172 kts 166°
2026-04-20 06:22 59.03866 5.62059 2873 ft 165 kts 166°
2026-04-20 06:22 59.02750 5.62371 2686 ft 161 kts 166°
2026-04-20 06:22 59.01651 5.62672 2474 ft 159 kts 166°
2026-04-20 06:22 59.00565 5.62960 2254 ft 157 kts 166°
2026-04-20 06:23 58.99489 5.63249 2067 ft 152 kts 167°
2026-04-20 06:23 58.98453 5.63503 1842 ft 151 kts 170°
2026-04-20 06:23 58.97422 5.63544 1600 ft 145 kts 175°
2026-04-20 06:23 58.96438 5.63527 1495 ft 137 kts 176°
2026-04-20 06:24 58.95491 5.63540 1281 ft 134 kts 175°
2026-04-20 06:24 58.94572 5.63573 1088 ft 132 kts 175°
2026-04-20 06:24 58.93655 5.63598 910 ft 133 kts 175°
2026-04-20 06:24 58.92728 5.63626 741 ft 134 kts 175°
2026-04-20 06:25 58.91794 5.63652 554 ft 134 kts 175°
2026-04-20 06:25 58.90866 5.63683 375 ft 131 kts 175°
2026-04-20 06:25 58.89991 5.63707 208 ft 128 kts 175°
2026-04-20 06:25 58.89087 5.63741 36 ft 124 kts 175°
2026-04-20 06:26 58.88433 5.63759 31 ft 62 kts 179°
2026-04-20 06:26 58.88111 5.63774 33 ft 33 kts 176°
2026-04-20 06:26 58.87920 5.63772 34 ft 23 kts 179°
2026-04-20 06:26 58.87771 5.63779 34 ft 19 kts 179°
2026-04-20 06:27 58.87693 5.63685 34 ft 14 kts 286°
2026-04-20 06:27 58.87724 5.63498 32 ft 15 kts 286°
2026-04-20 06:27 58.87763 5.63308 31 ft 15 kts 320°
2026-04-20 06:27 58.87859 5.63301 31 ft 13 kts 19°
2026-04-20 06:28 58.87941 5.63368 31 ft 12 kts 22°
2026-04-20 06:28 58.88027 5.63432 31 ft 15 kts 10°
2026-04-20 06:28 58.88153 5.63436 31 ft 18 kts 359°
2026-04-20 06:28 58.88266 5.63432 30 ft 14 kts 358°
2026-04-20 06:29 58.88361 5.63429 30 ft 12 kts 359°
2026-04-20 06:29 58.88440 5.63363 30 ft 15 kts 285°
2026-04-20 06:29 58.88424 5.63162 29 ft 13 kts 280°
2026-04-20 06:29 58.88427 5.63026 29 ft 8 kts 233°
2026-04-20 06:30 58.88392 5.62956 28 ft 4 kts 224°
2026-04-20 06:30 58.88383 5.62940 28 ft 0 kts 225°